Station 44022 - Execution Rocks Image indicating link to RSS feed of recent meteorological observations for station 44022


Conditions at 44022 as of
(11:30 am EDT)
1530 GMT on 04/18/2024:
     

Click on the graph icon in the table below to see a time series plot of the last five days of that observation.

5-day plot - Wind Direction Wind Direction (WDIR):ENE ( 70 deg true )
5-day plot - Wind Speed Wind Speed (WSPD): 21.4 kts
5-day plot - Atmospheric Pressure Atmospheric Pressure (PRES):30.07 in
5-day plot - Air Temperature Air Temperature (ATMP): 44.2 °F
5-day plot - Dew Point Dew Point (DEWP): 43.3 °F
5-day plot - Wind Chill Wind Chill (CHILL): 35.1 °F
5-day plot - Wind Speed at 10 Meters Wind Speed at 10 meters (WSPD10M): 23.3 kts
5-day plot - Wind Speed at 20 Meters Wind Speed at 20 meters (WSPD20M): 23.3 kts
5-day plot -  Wind Speed, Wind Gust and Atmospheric Pressure Combined plot of Wind Speed, Gust, and Air Pressure
Previous observations
TIME
(EDT)
5-day plot - Wind Direction
WDIR
 
5-day plot - Wind Speed
WSPD
kts
5-day plot - Wind Gust
GST
kts
5-day plot - Wave Height
WVHT
ft
5-day plot - Dominant Wave Period
DPD
sec
5-day plot - Average Wave Period
APD
sec
5-day plot - Mean Wave Direction
MWD
 
5-day plot - Atmospheric Pressure
PRES
in
5-day plot - Pressure Tendency
PTDY
in
5-day plot - Air Temperature
ATMP
°F
5-day plot - Water Temperature
WTMP
°F
5-day plot - Dew Point
DEWP
°F
5-day plot - Salinity
SAL
psu
5-day plot - Visibility
VIS
nmi
5-day plot - Tide (above MLLW)
TIDE
ft
2024-04-18 11:15 amENE 21.4-----30.07- 44.6- 43.7---
2024-04-18 11:00 amENE 21.4-----30.06+0.04 44.8- 44.1---
2024-04-18 10:45 amENE 21.4-----30.05- 45.0- 44.2---
2024-04-18 10:30 amENE 21.4-----30.04- 45.0- 44.2---
2024-04-18 10:15 amENE 21.4-----30.04- 45.1- 44.2---
2024-04-18 10:00 amENE 21.4-----30.03+0.05 45.1- 44.2---
2024-04-18 09:45 amENE 21.4-----30.03- 45.1- 44.2---
2024-04-18 09:30 amENE 23.3-----30.03- 45.1- 44.2---
2024-04-18 09:15 amENE 21.4-----30.02- 45.0- 44.2---
2024-04-18 09:00 amENE 23.3-----30.01+0.04 45.3- 44.6---
2024-04-18 08:45 amENE 23.3-----30.01- 45.3- 44.8---
2024-04-18 08:30 amENE 21.4-----30.01- 45.5- 45.0---
2024-04-18 08:00 amENE 21.4-----30.01+0.06 45.3- 44.6---
2024-04-18 07:45 amENE 23.3-----30.01- 45.1- 44.4---
2024-04-18 07:30 amENE 21.4-----30.00- 45.1- 44.6---
2024-04-18 07:15 amENE 21.4-----29.99- 45.1- 44.6---
2024-04-18 07:00 amENE 23.3-----29.98- 45.1- 44.6---
2024-04-18 06:45 am E 23.3-----29.97- 45.3- 44.8---
2024-04-18 06:30 am E 23.3-----29.97- 45.5- 45.0---
2024-04-18 06:15 am E 21.4-----29.97- 45.7- 45.1---
2024-04-18 06:00 amENE 21.4-----29.96+0.00 46.0- 45.5---
2024-04-18 05:45 am E 21.4-----29.96- 46.4- 45.9---
2024-04-18 05:30 am E 21.4-----29.96- 46.6- 46.0---
2024-04-18 05:15 am E 21.4-----29.96- 46.6- 46.0---
2024-04-18 05:00 am E 21.4-----29.95-0.03 46.8- 46.0---
2024-04-18 04:45 am E 21.4-----29.96- 46.8- 46.2---
2024-04-18 04:15 am E 21.4-----29.95- 47.1- 46.2---
2024-04-18 03:45 am E 21.4-----29.95- 46.9- 46.0---
2024-04-18 03:30 am E 19.4-----29.96- 46.9- 46.0---
2024-04-18 03:15 am E 17.5-----29.96- 46.9- 46.0---
2024-04-18 03:00 am E 17.5-----29.97-0.06 46.9- 46.0---
2024-04-18 02:45 am E 17.5-----29.97- 47.1- 46.2---
2024-04-18 02:30 am E 17.5-----29.97- 47.1- 46.2---
2024-04-18 02:15 am E 17.5-----29.98- 47.3- 46.2---
2024-04-18 02:00 am E 17.5-----29.98-0.05 47.5- 46.2---
2024-04-18 01:45 am E 17.5-----29.99- 47.5- 46.0---
2024-04-18 01:30 am E 17.5-----30.00- 47.7- 46.4---
2024-04-18 01:15 am E 19.4-----30.00- 47.7- 46.2---
2024-04-18 01:00 amENE 19.4-----30.01-0.05 47.8- 46.2---
2024-04-18 12:45 am E 19.4-----30.01- 47.8- 46.4---
2024-04-18 12:30 amENE 19.4-----30.01- 47.8- 46.2---
2024-04-18 12:15 am E 19.4-----30.01- 47.8- 46.2---
2024-04-18 12:00 amENE 17.5-----30.03-0.02 47.7- 46.0---
2024-04-17 11:30 pm E 17.5-----30.02- 47.8- 45.9---
2024-04-17 11:15 pm E 17.5-----30.02- 47.8- 45.9---
2024-04-17 11:00 pm E 19.4-----30.03-0.02 47.8- 45.9---
2024-04-17 10:45 pm E 19.4-----30.04- 47.8- 45.9---
2024-04-17 10:15 pm E 19.4-----30.05- 48.0- 45.5---
2024-04-17 10:00 pmENE 17.5-----30.06+0.00 48.2- 45.7---
2024-04-17 09:45 pmENE 19.4-----30.06- 48.2- 45.3---
2024-04-17 09:30 pmENE 19.4-----30.06- 48.4- 45.5---
2024-04-17 09:15 pmENE 17.5-----30.05- 48.6- 45.5---
2024-04-17 09:00 pmENE 17.5-----30.05- 48.7- 45.9---
2024-04-17 08:45 pmENE 15.5-----30.05- 48.9- 45.9---
2024-04-17 08:30 pmENE 15.5-----30.04- 49.3- 46.0---
2024-04-17 08:15 pmENE 13.6-----30.04- 49.5- 45.9---
2024-04-17 08:00 pmENE 11.7-----30.06- 49.5- 45.7---
2024-04-17 07:45 pmENE 7.8-----30.06- 49.3- 45.7---
2024-04-17 07:15 pm E 7.8-----30.06- 49.5- 45.5---
2024-04-17 07:00 pm E 9.7-----30.05- 49.3- 45.3---
2024-04-17 06:45 pmENE 7.8-----30.06- 49.5- 45.5---
2024-04-17 03:00 pmENE 15.5-----30.10- 49.6- 45.1---
2024-04-17 02:15 pmENE 15.5-----30.11- 49.5- 44.4---
2024-04-17 02:00 pmENE 15.5-----30.11-0.04 49.5- 44.6---
2024-04-17 01:45 pmENE 17.5-----30.11- 49.3- 44.2---
2024-04-17 01:00 pmENE 17.5-----30.13-0.04 49.3- 44.2---
2024-04-17 12:45 pmENE 17.5-----30.13- 49.1- 43.9---
2024-04-17 12:30 pmENE 17.5-----30.14- 49.1- 43.7---
2024-04-17 12:15 pmENE 17.5-----30.14- 49.1- 43.5---